Back to catalog

STARLINK-35317

AliveCommunicationsVLEO
NORAD 66184·PAYLOAD·🇺🇸 United States

Launched Oct 26, 2025 from Cape Canaveral Space Force Station

Loading…

Next Passes (next 24 hours)

TLE

FreshSource: CelesTrak SupGP

Epoch: Sep 14, 2026, 22:56 UTC

1 66184C 25243H   26257.95604167  .00043875  00000+0  12967-2 0  2571
2 66184  53.1583  83.3566 0001251  81.1049 164.3482 15.34358864    11

Track STARLINK-35317 in real time with AllMySat

Download on the App Store